GFSMW_prec_cthk_078.txt.gz
RH
47 43 46 47 43 53 79 89 90 94 92 91 98 99 96 97 96 93 91 88 83 79 77 76 76 76 76 77 83 85 83 85 83 75 67 65 63 59 59 59 60 67 69
50 44 41 37 41 49 67 88 90 94 96 99 97 97 95 91 94 92 88 89 79 78 78 77 76 73 72 70 76 80 82 81 82 79 74 71 67 68 68 71 76 79 83
44 39 38 34 36 43 50 65 77 86 92 94 96 95 96 93 91 92 91 85 81 79 74 73 74 72 70 71 72 72 70 75 80 79 79 81 74 72 76 74 82 84 83
39 35 36 32 28 32 38 46 55 64 77 88 92 93 92 91 88 83 77 73 71 71 69 69 71 74 72 69 67 64 65 68 76 81 84 82 78 83 75 75 72 82 83
32 31 32 32 27 26 32 34 42 50 55 63 72 72 73 71 70 65 64 64 60 62 62 61 64 62 63 63 65 65 62 68 76 82 86 80 83 93 77 75 77 73 73
33 33 34 36 33 24 27 30 34 38 44 48 52 52 52 52 53 53 53 52 55 56 56 55 57 60 60 61 63 65 74 81 80 83 85 83 83 80 79 84 72 77 69
32 36 40 40 40 37 31 29 30 34 38 41 44 42 41 42 44 47 48 48 53 55 59 62 60 60 61 64 66 73 84 84 88 97 92 86 81 81 85 88 71 70 70
33 35 38 42 41 40 38 36 36 36 37 39 42 44 45 48 49 50 50 52 53 55 56 58 59 60 59 57 60 61 70 82 89 95 95 94 87 81 90 86 81 64 64
32 33 36 40 42 41 41 38 34 37 39 39 44 46 47 53 55 57 57 56 55 56 58 60 58 54 54 58 58 67 72 81 93 92 91 92 85 92 86 83 82 62 66
33 34 37 40 43 46 47 49 50 44 39 41 42 44 48 51 52 53 54 56 56 58 62 58 60 65 69 77 76 79 85 85 91 95 95 98 96 93 94 73 78 58 65
31 33 35 39 46 51 52 51 56 59 58 55 46 45 48 51 52 52 52 51 56 57 60 70 80 88 91 92 88 96 93 91 94 92 92 98 94 88 92 74 72 63 57
29 30 33 36 39 46 52 56 59 60 62 65 72 74 71 71 66 64 64 64 63 72 75 80 93 91 83 81 85 88 91 90 90 90 94 97 89 93 84 72 63 67 61
37 34 35 35 32 35 38 44 50 56 60 62 66 75 79 83 77 69 53 58 65 82 85 86 85 87 89 71 70 77 80 81 87 89 97 94 92 83 72 78 70 66 66
43 41 37 37 33 36 38 37 36 36 40 45 48 52 65 79 78 76 60 57 62 80 84 79 75 72 73 74 75 79 86 85 87 85 91 88 82 79 74 69 69 73 69
40 45 42 38 39 39 39 38 34 37 38 39 41 44 53 64 69 72 73 61 57 59 66 79 87 77 75 73 76 81 79 78 88 84 85 83 81 65 68 66 67 68 70
45 43 47 44 42 44 45 43 40 41 42 37 39 40 43 53 65 70 66 61 54 53 56 63 72 76 66 66 75 79 85 84 85 81 77 70 72 65 78 68 69 71 74
53 49 52 50 50 48 48 46 44 44 46 38 35 44 44 53 59 59 56 52 50 52 52 56 63 70 72 72 77 79 79 79 75 73 72 67 70 68 63 70 72 73 72
56 54 50 46 48 50 48 47 47 46 45 44 40 42 45 49 54 56 54 52 55 50 51 57 62 66 69 72 75 74 74 76 74 71 70 67 63 65 71 71 70 65 58
47 48 50 43 45 50 50 50 49 49 47 45 41 42 46 51 56 63 60 58 57 60 63 67 69 73 75 70 70 71 73 71 70 68 65 66 68 68 71 67 65 56 49
45 47 44 42 46 48 52 52 50 49 48 45 44 47 52 56 60 55 52 60 63 67 71 72 70 69 69 70 72 73 74 73 71 70 70 72 74 74 72 64 57 52 50
42 41 41 43 44 48 49 50 49 49 51 48 51 54 57 57 56 58 63 66 70 70 71 72 73 73 73 73 74 75 75 77 78 80 83 85 82 71 62 56 53 51 55
44 44 45 51 54 55 51 50 54 56 55 55 58 59 60 62 64 69 69 68 68 70 73 76 78 79 78 79 81 84 86 89 93 93 89 79 71 64 57 54 58 65 62
53 53 51 50 52 55 55 56 61 64 63 61 62 64 65 68 70 70 72 72 72 73 78 82 83 84 84 86 89 91 94 96 92 84 77 70 64 62 64 70 69 70 70
62 65 63 59 61 65 68 67 70 71 70 69 75 76 75 75 76 76 77 79 81 82 82 83 84 87 89 90 93 96 96 94 88 81 77 75 76 79 79 82 83 79 82
76 77 76 74 74 75 79 79 76 76 79 80 80 81 80 80 83 86 88 91 92 93 95 97 98 97 96 97 97 97 96 91 84 77 78 81 83 83 81 78 77 84 89
79 91 85 87 81 82 84 85 85 85 85 84 86 88 86 88 90 94 98 97 97 94 90 93 97 97 97 97 97 97 89 81 82 87 91 90 90 87 86 89 92 93 91

GFSMW_prec_cthk_084.txt.gz
RH
50 53 46 45 39 38 43 58 82 83 83 81 87 92 93 92 93 90 85 84 89 87 85 84 82 82 84 83 82 84 83 83 83 80 78 80 78 75 71 68 67 63 60
53 51 44 42 36 38 44 63 83 89 86 93 94 93 97 94 92 91 92 91 85 83 87 85 80 83 83 87 85 85 86 85 84 86 89 86 81 80 74 71 68 65 66
48 47 40 38 35 34 39 56 76 92 96 94 99 96 97 94 95 92 92 90 92 88 88 85 82 82 87 86 82 84 85 84 84 83 86 87 85 89 81 79 74 73 74
45 44 35 34 34 32 34 48 63 75 91 97 96 95 96 94 95 93 92 95 94 90 87 83 83 85 80 77 75 75 74 74 77 77 76 76 80 83 89 87 86 84 82
44 45 32 31 32 31 32 39 51 65 76 90 97 98 96 93 94 91 91 92 91 89 85 83 83 77 74 70 69 68 69 71 75 76 75 72 71 72 80 82 85 87 85
40 43 34 29 29 29 30 34 41 50 64 78 93 96 96 94 93 91 88 90 90 87 80 80 72 69 68 64 66 68 71 70 72 72 72 74 71 71 79 83 89 96 97
36 38 31 28 29 28 26 30 33 40 48 59 73 81 81 82 83 81 77 79 83 76 72 68 65 65 64 63 65 68 68 68 67 65 68 69 71 80 84 89 94 96 95
34 34 31 32 32 32 29 29 31 36 43 46 50 57 63 67 69 71 69 69 67 64 65 63 62 60 60 62 64 64 64 64 61 64 68 70 71 67 71 87 94 97 97
37 36 35 34 35 35 32 27 31 35 37 42 47 49 52 55 56 58 59 62 60 61 61 58 55 55 57 59 60 59 61 65 66 64 64 67 67 74 80 88 86 94 93
38 36 36 33 36 37 35 30 31 36 37 39 44 47 49 51 52 53 52 54 56 57 57 55 54 56 56 59 60 60 63 69 68 64 69 74 79 86 90 92 96 98 98
42 43 39 35 36 37 39 33 33 37 39 41 43 46 49 51 51 52 52 53 56 56 57 56 57 57 58 59 62 64 65 72 75 70 83 89 95 92 96 96 98 92 98
45 44 41 37 38 39 42 42 41 41 41 43 46 48 51 55 57 58 58 60 62 63 59 58 60 65 67 67 69 70 70 71 73 81 92 88 87 85 91 88 91 92 99
46 45 44 42 41 41 42 44 44 45 51 56 57 56 52 51 53 57 54 62 62 63 64 65 65 65 66 66 67 70 72 74 78 89 87 88 81 80 85 85 85 82 83
48 50 49 42 44 45 45 46 50 51 54 56 54 56 57 57 57 58 56 65 72 69 65 64 63 57 59 63 68 72 77 83 80 82 79 79 81 84 84 85 84 84 86
51 50 50 48 44 42 44 44 50 52 51 51 48 44 47 48 44 44 49 59 62 63 67 67 66 65 64 60 64 69 79 80 82 80 82 78 78 81 83 83 84 83 90
52 53 51 52 51 47 43 42 38 38 41 42 43 45 45 47 49 49 47 56 66 68 72 73 77 73 68 62 63 66 70 78 82 85 84 84 79 88 85 86 85 80 82
57 58 55 52 51 47 44 45 44 43 40 40 40 40 40 41 41 44 49 50 61 71 82 82 82 74 68 67 64 63 64 66 67 75 80 85 84 87 86 83 83 83 83
57 57 59 56 54 54 50 48 47 47 47 44 42 43 44 46 48 49 48 48 51 60 67 71 71 71 69 61 58 62 65 65 67 73 77 81 85 86 88 85 82 82 87
55 54 58 61 56 54 54 52 52 54 52 48 49 48 49 50 51 50 50 52 53 53 56 62 63 65 64 61 62 59 62 71 74 78 83 87 90 91 88 87 85 87 89
53 53 60 60 60 59 58 58 55 56 54 54 58 58 53 53 57 55 52 53 58 59 59 62 65 65 65 66 67 73 77 81 85 87 89 93 91 89 89 91 89 86 87
59 59 57 58 57 58 55 58 58 60 58 56 57 56 59 60 62 59 54 56 59 62 64 67 70 71 71 74 81 83 86 87 88 89 90 91 92 93 92 89 87 86 86
68 68 62 60 57 60 58 60 60 55 54 64 63 66 67 67 67 65 64 64 65 67 69 70 74 76 82 84 86 88 90 91 92 92 92 92 92 88 83 83 84 82 83
76 72 71 65 65 64 61 65 66 62 64 71 77 77 77 74 73 75 74 75 77 78 79 81 85 88 88 87 87 89 91 92 94 95 96 97 97 96 93 88 84 81 80
82 84 78 75 71 71 70 73 72 72 75 78 81 81 80 78 77 79 79 83 87 86 86 88 90 91 91 90 90 93 96 96 96 96 97 96 94 86 80 77 80 87 91
89 92 88 88 84 83 84 82 82 85 85 84 84 84 82 83 84 86 88 91 91 91 93 95 92 92 94 96 97 96 96 97 96 94 88 86 84 84 88 93 92 91 90
90 92 96 99 97 98 94 93 95 95 96 89 88 88 88 88 90 95 92 95 94 98 98 98 96 97 98 95 92 92 91 87 84 82 83 82 85 90 90 89 88 87 86

GFSMW_prec_cthk_087.txt.gz
RH
41 43 49 48 45 40 34 38 49 68 78 78 74 74 79 81 88 89 92 92 93 93 92 86 83 88 91 85 82 84 76 70 72 71 70 67 63 61 66 65 64 66 69
39 44 49 44 41 34 34 39 53 76 82 82 76 77 84 88 90 92 92 89 85 91 87 89 86 90 86 83 82 80 79 81 82 83 79 78 74 75 75 73 71 69 66
40 43 47 42 38 33 32 38 54 72 81 84 87 91 93 95 95 92 88 84 85 87 85 87 87 87 86 87 88 86 86 87 86 85 86 89 88 87 86 78 76 73 73
41 42 45 44 34 32 32 37 49 62 76 93 90 95 95 95 94 93 88 87 85 85 88 86 88 87 89 90 90 92 92 91 90 86 81 81 82 86 91 89 82 83 84
39 41 45 42 34 34 29 33 42 52 63 73 91 93 92 94 91 91 88 91 90 88 86 90 90 89 90 91 93 91 87 88 83 76 75 74 73 73 73 72 76 81 83
37 41 45 41 33 32 26 29 36 45 52 64 86 96 98 96 92 90 89 89 88 89 88 88 89 86 84 91 84 77 72 72 72 71 75 77 77 75 74 72 74 83 85
36 40 42 38 31 31 26 27 30 36 44 56 73 92 97 98 94 91 90 88 87 90 89 88 83 81 82 82 74 69 72 70 70 70 71 71 71 69 70 73 74 79 80
34 37 40 38 32 32 28 30 31 32 40 47 56 66 74 78 81 84 81 77 82 84 85 83 82 73 76 74 69 68 70 70 68 65 64 62 59 64 67 70 70 70 72
33 38 41 38 34 32 29 29 33 34 37 43 47 53 56 60 62 65 67 67 71 73 73 75 77 75 71 68 67 67 65 66 63 58 60 63 62 61 66 78 84 83 85
31 39 40 41 38 36 31 30 32 34 36 41 45 47 51 54 55 59 58 58 59 62 65 65 66 78 66 63 68 65 64 63 60 61 65 73 78 75 77 90 92 96 96
34 38 41 42 39 39 34 32 31 31 37 38 42 46 48 52 55 54 54 57 57 57 58 60 60 65 59 62 68 64 62 62 65 72 77 79 79 77 78 88 91 91 94
34 39 45 46 43 41 39 33 32 30 35 35 38 44 47 51 57 60 60 60 60 63 65 67 60 61 60 61 61 61 64 66 67 70 77 81 82 82 86 92 93 82 83
42 45 46 46 44 44 43 41 39 35 35 40 39 41 46 51 54 56 61 66 65 67 73 73 70 66 61 62 65 70 71 72 75 77 80 79 82 87 89 87 84 83 85
44 49 48 46 48 47 48 46 44 43 41 41 43 44 42 43 49 57 65 63 60 61 65 72 75 75 73 71 73 72 70 71 68 68 71 75 81 81 85 82 81 83 84
50 48 51 51 51 50 49 51 50 49 50 50 48 50 49 47 48 50 53 53 54 56 65 71 68 65 66 66 65 65 64 61 62 67 76 82 85 86 84 86 91 89 86
54 51 49 54 55 53 49 51 52 52 54 52 52 55 56 52 49 45 45 48 52 55 62 67 67 72 73 72 73 79 79 74 70 70 70 72 71 75 80 87 89 89 91
55 56 55 51 53 54 52 51 54 53 53 54 54 54 50 52 51 51 47 44 45 48 54 63 70 76 80 81 85 82 79 77 77 74 69 69 74 72 75 75 85 87 89
55 53 60 57 53 54 59 56 52 52 52 51 53 51 49 48 47 49 49 50 49 46 49 59 71 79 86 86 88 86 87 85 77 70 68 72 72 71 74 82 82 86 88
54 55 52 57 58 54 57 60 57 56 57 51 51 54 52 51 53 55 56 58 56 51 54 57 60 64 70 74 75 75 76 75 68 68 70 73 77 80 85 91 89 95 97
53 51 54 53 56 62 60 64 62 64 62 63 62 63 62 61 61 62 56 55 57 58 58 59 62 64 64 64 66 72 71 72 75 74 78 82 88 89 90 94 96 94 90
57 55 54 58 57 57 63 64 68 70 71 68 71 70 67 67 63 63 66 63 64 66 63 61 63 68 71 72 74 77 77 76 81 83 87 89 90 90 90 90 88 86 87
64 60 59 57 59 60 61 71 72 72 71 64 68 71 71 70 70 71 76 74 74 72 72 72 72 73 74 76 77 79 84 86 88 91 91 90 91 91 90 91 94 96 93
71 73 68 68 68 66 64 65 68 71 75 74 78 78 79 77 77 79 82 84 81 75 78 83 81 79 79 80 84 87 90 93 94 94 92 92 94 95 96 94 91 87 85
70 77 81 83 82 78 77 75 72 70 70 74 78 75 79 78 81 89 88 93 88 83 87 85 84 88 89 90 89 92 96 97 97 94 97 97 95 92 91 92 89 84 77
77 80 86 87 92 88 85 83 81 80 79 79 83 83 86 89 92 93 90 90 94 92 90 91 91 97 98 96 97 98 97 96 97 95 92 92 90 88 84 78 78 82 82
84 87 87 94 98 97 95 94 92 89 90 90 92 94 96 98 95 97 96 97 94 93 96 98 98 98 98 97 97 97 96 95 94 93 91 89 89 88 88 87 86 81 73

GFSMW_prec_cthk_093.txt.gz
RH
34 36 39 41 33 36 40 38 34 30 33 40 58 64 66 67 67 68 74 80 85 91 95 96 91 85 79 75 77 77 76 78 76 74 73 77 79 74 59 57 50 45 45
34 37 38 39 36 36 39 36 34 30 33 47 65 68 70 69 66 67 73 80 85 94 98 96 90 91 86 83 82 79 81 81 78 76 79 85 77 70 64 59 55 56 57
35 35 38 41 39 37 37 35 32 30 34 45 64 71 70 70 68 71 75 83 90 95 96 96 96 95 90 85 79 80 84 81 79 82 79 73 71 70 70 67 65 66 66
37 33 40 41 39 39 38 32 31 28 35 44 55 65 77 70 74 80 85 89 94 94 98 96 93 92 95 85 83 85 84 82 81 80 75 78 80 79 77 78 77 79 80
36 35 39 41 39 41 36 30 27 27 34 40 49 57 74 82 82 87 92 94 95 97 97 95 94 93 92 88 86 89 86 85 81 75 79 84 87 91 83 81 76 78 73
34 34 38 39 39 42 35 28 26 26 33 38 46 64 77 83 86 90 93 93 94 96 95 95 96 95 93 92 90 87 86 84 83 82 82 85 88 84 79 74 69 67 68
33 34 36 35 37 39 33 25 27 28 33 37 46 66 79 84 90 92 92 91 91 95 95 96 95 93 91 91 91 88 86 89 87 87 87 89 86 78 71 71 72 70 69
36 35 39 33 36 36 32 24 27 28 35 38 44 53 66 84 92 93 89 87 87 88 88 92 92 88 88 90 90 89 92 94 92 92 92 88 78 72 71 70 70 65 64
40 38 43 39 35 35 33 24 27 29 32 38 42 48 52 61 74 79 82 84 84 86 83 82 90 85 85 84 87 89 89 87 87 89 80 75 75 70 67 64 63 68 78
42 41 41 40 34 37 37 28 28 27 30 35 42 45 50 54 56 60 63 66 74 79 80 74 73 74 75 81 83 87 88 84 82 80 73 69 66 67 68 68 74 83 86
43 46 41 41 35 38 40 34 29 29 31 33 39 45 47 50 54 55 57 58 56 59 62 61 59 60 64 71 76 80 78 76 77 71 70 68 70 71 74 79 79 80 83
45 46 46 46 41 40 41 39 31 30 29 32 35 42 46 49 51 53 56 57 54 53 54 55 55 58 62 71 75 80 76 72 73 73 74 72 75 80 78 78 77 80 82
43 46 49 48 46 44 42 44 37 32 30 32 34 37 41 48 50 52 56 61 65 63 59 59 62 67 67 68 74 78 85 89 85 81 78 76 77 80 79 78 79 78 79
50 49 49 55 50 49 50 49 46 38 36 35 36 36 39 43 47 49 50 55 62 65 65 62 60 63 67 72 76 81 77 75 76 77 79 80 80 79 76 77 78 75 75
54 50 53 62 60 59 58 58 51 46 43 40 39 42 41 42 46 49 49 50 53 59 63 65 61 57 60 65 72 77 82 81 81 76 80 81 79 76 75 75 70 76 78
56 54 51 59 60 57 59 58 54 50 49 48 47 46 45 47 45 49 51 53 54 54 55 56 58 58 58 57 61 70 76 78 82 82 79 81 81 76 74 77 83 80 85
61 56 56 53 56 67 67 58 53 56 55 55 52 54 53 53 52 52 53 55 57 59 55 54 57 58 58 60 61 66 72 80 81 83 85 86 84 84 87 91 87 94 95
58 59 56 53 52 54 64 75 72 59 57 55 57 56 56 60 64 63 61 61 58 59 63 60 56 55 52 55 60 66 71 77 86 87 91 94 96 95 97 96 98 85 84
58 61 60 60 56 51 55 63 70 73 64 58 57 58 63 64 67 66 69 72 68 68 66 64 63 64 65 65 66 70 75 77 78 81 83 87 89 90 86 92 78 98 94
66 71 67 61 59 55 58 56 63 72 76 73 63 68 67 64 66 70 76 78 75 69 69 73 73 75 75 74 76 80 80 78 78 79 79 78 79 81 78 86 87 79 83
67 71 73 71 69 61 57 56 59 65 70 73 77 74 73 73 71 73 76 79 77 73 75 79 78 80 84 85 86 86 89 89 86 86 88 84 86 86 87 85 89 94 94
85 73 76 74 68 64 60 61 60 60 64 70 75 77 78 82 76 76 81 81 80 81 82 84 85 87 90 90 92 95 95 93 91 92 89 90 90 95 98 97 97 97 97
82 80 83 77 61 60 63 61 64 65 65 69 77 82 88 90 90 81 80 85 89 89 87 88 88 90 93 91 92 94 99 97 94 95 95 93 97 96 98 97 97 97 97
74 80 73 58 59 63 67 72 72 69 70 73 80 85 88 91 90 91 91 92 92 96 92 93 93 96 98 97 97 92 93 98 98 99 97 97 97 98 96 97 96 95 93
78 72 69 69 64 70 72 77 79 80 80 82 87 89 93 95 94 93 94 93 93 93 99 98 98 98 98 96 94 97 98 96 98 96 97 97 97 96 96 95 94 86 75
78 77 77 77 71 68 74 80 83 87 87 89 93 93 93 95 99 96 96 96 98 98 98 98 96 97 97 97 96 93 96 98 97 96 96 97 95 95 89 80 72 68 61

GFSMW_prec_cthk_096.txt.gz
RH
30 31 29 33 40 42 37 33 36 34 28 27 32 45 60 67 69 71 77 80 86 88 96 95 94 82 75 66 61 63 64 66 68 67 69 72 70 65 63 66 70 58 47
34 35 34 35 38 41 41 39 35 32 26 25 36 50 61 62 68 71 72 73 92 86 88 92 94 86 81 72 67 65 72 71 73 71 72 75 74 78 76 74 63 55 47
39 40 37 35 38 39 41 41 34 31 25 24 36 50 61 67 68 69 69 71 78 84 88 95 93 88 86 83 77 78 75 78 79 74 78 80 80 83 76 67 59 56 56
38 40 38 36 40 39 43 42 37 29 23 23 35 46 54 62 67 65 65 70 76 83 88 98 98 93 91 90 87 81 79 79 76 83 81 80 82 78 73 64 61 61 60
41 41 38 36 42 44 44 43 38 28 21 22 32 42 53 66 70 69 71 78 85 89 89 97 97 92 92 91 89 84 83 81 84 84 84 86 78 73 75 75 75 77 80
44 42 40 39 43 47 45 44 37 27 21 22 31 45 58 76 79 80 82 87 89 89 93 97 98 95 90 93 94 87 85 87 86 84 87 82 82 88 89 86 83 78 76
42 44 39 41 44 45 45 43 33 26 22 24 33 51 60 78 83 87 90 88 92 92 93 94 96 96 97 91 95 91 89 87 87 86 83 82 85 91 90 87 81 78 72
43 44 38 38 39 43 44 41 31 25 23 26 33 48 59 71 90 90 92 91 92 94 94 94 95 95 95 96 93 92 90 90 88 85 81 83 85 87 86 85 76 74 73
41 42 41 42 39 43 44 39 31 25 24 26 33 43 51 60 73 91 91 91 91 92 95 97 97 96 95 95 93 91 91 90 89 88 88 89 90 91 90 78 76 77 73
48 48 44 44 46 45 43 41 33 25 24 27 32 38 46 51 57 64 72 80 85 88 90 93 97 96 95 94 92 92 92 90 91 94 92 93 91 88 81 79 74 71 74
63 51 47 46 48 44 44 42 36 27 27 27 31 37 43 48 51 55 60 63 67 78 83 84 83 93 90 86 86 88 88 88 93 92 91 94 88 80 74 72 74 77 84
60 67 54 48 48 43 45 44 41 32 28 27 30 36 43 47 48 52 56 58 56 57 65 66 64 68 69 72 75 78 82 86 86 87 86 88 91 82 72 73 74 80 84
59 62 59 50 50 46 50 49 47 41 33 28 31 34 39 47 50 55 58 61 63 59 55 55 57 57 60 64 70 74 76 77 78 79 79 82 81 80 78 79 82 85 84
58 58 62 54 53 50 54 53 51 50 40 32 31 35 37 41 48 53 57 61 65 67 66 65 59 61 61 61 65 68 71 76 79 82 81 82 84 84 84 83 83 85 85
62 57 64 58 57 57 59 58 55 55 51 43 37 39 40 39 42 47 54 55 57 62 67 68 65 61 60 61 63 65 71 73 72 77 85 89 88 87 85 88 88 88 85
71 59 59 67 64 68 67 67 65 62 60 51 46 43 42 45 45 45 49 54 55 56 58 61 65 65 63 62 60 62 65 72 77 83 86 86 84 81 81 86 86 86 88
77 73 72 67 67 69 75 72 76 75 70 64 58 54 52 49 51 53 51 51 54 57 57 59 59 58 60 62 63 65 66 65 67 77 82 82 83 88 92 89 88 89 89
81 77 71 70 68 67 67 69 71 67 74 70 66 63 62 67 64 60 58 56 57 58 61 61 60 60 58 60 63 65 64 61 62 66 69 78 88 89 90 91 93 96 96
79 76 72 67 69 66 65 62 59 61 71 79 73 71 73 70 72 70 67 67 66 66 68 65 66 66 63 61 62 66 67 66 68 69 70 75 80 84 81 83 82 84 81
77 78 76 65 64 70 65 64 58 55 58 64 73 80 75 75 72 73 76 80 78 76 71 76 74 71 72 73 73 71 71 74 72 73 79 82 82 82 75 72 90 84 77
80 80 74 71 70 66 63 63 61 59 57 52 60 70 78 83 84 85 86 82 82 83 87 87 87 81 78 80 83 84 84 83 87 88 89 87 88 90 93 98 89 98 92
73 77 76 69 66 65 67 68 67 66 60 55 52 58 69 77 84 86 90 93 91 88 86 86 89 89 84 84 88 89 91 90 91 91 93 98 98 98 96 91 93 95 95
81 76 72 69 70 69 65 63 64 67 63 60 59 57 60 67 74 87 93 97 95 94 94 90 88 92 90 93 91 95 97 92 96 95 92 95 96 98 96 97 97 94 97
90 78 71 66 61 68 68 71 70 70 68 66 64 67 67 70 74 80 89 95 97 98 97 98 98 92 94 97 98 96 96 97 98 98 98 97 97 96 96 97 97 96 96
92 85 80 72 65 61 62 64 69 69 68 72 75 76 77 80 81 82 85 90 94 95 94 93 94 92 92 93 97 98 97 97 97 97 97 97 97 96 95 97 95 90 80
96 91 85 80 78 74 70 69 64 64 70 74 79 81 83 86 87 88 91 90 95 95 98 91 97 99 93 93 93 97 98 96 96 97 97 97 95 96 95 80 69 60 53

GFSMW_prec_cthk_102.txt.gz
RH
31 32 33 33 33 34 34 36 37 38 42 45 43 40 37 31 29 33 41 53 66 70 83 77 95 98 97 98 96 96 95 89 76 71 77 74 66 60 49 42 42 46 56
29 32 32 31 32 36 35 37 37 38 40 46 45 42 36 30 28 36 44 56 67 74 79 81 93 97 98 95 93 94 94 80 76 76 73 75 70 63 56 47 50 54 64
25 28 29 31 32 34 36 38 37 39 42 46 47 45 36 26 26 34 44 52 68 78 80 85 93 94 93 92 92 92 90 80 78 79 70 74 71 71 64 56 60 62 63
25 26 28 29 32 36 39 39 42 41 44 46 48 45 33 21 23 34 43 54 69 83 86 90 98 99 96 95 91 82 84 79 73 80 75 69 67 72 71 69 65 68 70
29 25 25 28 31 35 41 41 45 47 47 47 50 46 31 20 25 36 50 65 68 74 88 88 93 96 95 91 79 77 78 82 73 73 76 73 74 74 69 68 74 77 72
31 31 27 27 30 34 42 46 46 48 51 52 52 45 26 21 30 41 55 70 69 74 78 95 84 92 97 90 79 83 80 75 74 78 79 82 83 79 74 80 81 79 74
38 38 33 29 33 36 45 49 48 48 52 55 52 40 24 24 32 45 56 73 72 66 66 72 88 87 85 90 85 84 85 84 81 84 87 85 88 84 83 83 82 82 76
39 44 42 35 34 42 48 50 50 51 52 56 49 32 23 28 35 45 60 78 75 72 75 81 84 91 96 91 95 89 88 91 93 93 92 87 86 89 86 87 89 87 84
45 45 47 41 41 50 51 49 53 52 53 53 45 27 25 31 39 45 59 83 82 79 82 86 89 95 93 96 98 93 94 95 96 93 92 84 90 89 92 91 89 88 95
57 58 57 50 54 58 59 58 53 51 52 52 38 26 27 34 40 45 49 72 82 83 86 88 92 98 96 99 98 97 96 95 94 97 94 93 94 94 92 94 91 88 94
70 73 66 58 63 64 58 56 53 49 52 50 34 25 28 35 39 44 47 50 59 71 81 85 90 93 95 95 94 95 95 93 94 95 95 94 94 93 93 92 91 91 93
87 82 74 66 67 64 61 54 54 53 56 47 32 26 29 34 38 43 47 49 51 53 68 82 87 89 90 93 93 92 93 93 95 95 96 95 94 92 93 93 91 90 91
93 86 75 71 72 69 65 61 62 61 63 51 35 29 32 34 39 43 48 51 53 55 56 60 69 72 73 85 92 91 90 92 93 92 91 91 93 94 93 92 92 91 92
97 96 94 83 78 76 73 72 68 68 65 60 46 35 33 34 39 45 49 52 55 57 61 60 60 63 65 74 81 82 81 82 83 82 83 85 86 89 93 95 96 94 94
97 97 97 90 84 81 78 73 70 75 71 68 58 49 40 35 38 41 47 52 55 55 57 61 63 62 66 67 71 73 74 78 83 83 83 82 84 88 92 94 95 93 94
97 97 99 95 89 87 82 78 80 80 81 74 70 65 59 49 43 41 44 48 53 55 56 57 60 61 61 65 68 73 74 74 76 79 79 82 84 86 90 91 87 87 90
96 94 96 93 92 92 87 82 85 87 89 85 83 78 71 66 62 57 49 47 49 53 56 58 60 61 61 60 61 61 62 66 69 70 72 73 74 78 81 80 81 82 84
91 93 94 96 95 91 90 90 88 93 91 92 90 90 84 78 78 76 71 64 57 54 57 59 61 62 63 65 67 69 66 61 57 58 62 65 68 70 70 70 72 74 75
89 92 91 91 92 91 91 90 84 83 85 86 86 89 89 85 82 82 80 76 72 70 67 58 62 66 66 69 71 74 74 73 70 65 63 63 62 64 66 66 67 69 68
80 88 88 85 89 87 86 82 79 82 83 87 86 88 87 85 78 76 78 79 82 83 84 85 82 73 68 69 74 80 82 80 79 79 78 76 75 76 76 75 73 73 73
83 88 82 78 82 83 83 80 79 79 78 78 78 74 74 72 70 69 70 72 79 85 86 87 89 89 91 87 80 79 82 86 89 89 87 86 85 84 83 85 84 86 86
84 88 81 83 76 77 79 78 75 76 76 72 69 66 65 66 67 65 65 63 63 74 79 83 86 87 90 93 95 97 98 95 93 97 94 89 86 90 91 91 95 93 92
95 98 96 91 85 80 82 78 76 74 72 70 64 66 65 65 64 60 59 63 65 67 68 74 78 79 82 83 85 87 91 93 97 98 98 97 98 99 98 91 95 96 98
99 97 93 91 81 73 65 63 59 61 60 61 63 63 65 67 68 66 67 69 69 71 73 78 76 79 82 81 85 97 97 98 97 97 97 98 98 97 98 98 97 97 97
97 97 95 92 89 84 81 74 72 68 63 59 56 58 62 64 69 71 72 73 74 76 76 78 82 81 79 93 96 93 94 94 97 98 96 96 97 97 97 97 96 96 96
92 94 93 92 85 82 83 83 82 79 72 67 64 63 59 61 64 66 68 74 79 82 85 85 83 83 81 80 81 80 83 91 97 92 91 94 95 96 96 95 90 88 84

GFSMW_prec_cthk_105.txt.gz
RH
33 32 31 32 32 31 30 29 31 37 40 42 45 47 46 44 42 32 27 30 40 49 58 71 76 82 87 95 98 97 92 98 95 87 80 71 72 72 64 52 50 43 42
25 27 29 31 31 30 31 29 31 35 39 43 47 46 47 46 44 33 27 32 42 49 61 75 82 88 85 99 98 97 97 97 95 81 75 75 78 75 65 54 49 46 47
23 23 23 25 28 29 30 29 32 36 40 43 47 48 50 48 45 33 27 30 40 50 61 76 87 82 89 95 98 98 97 94 92 88 79 79 79 77 66 52 50 46 45
25 24 21 21 23 27 29 28 33 37 42 44 47 49 50 49 44 27 27 32 42 54 64 76 84 92 87 94 98 98 97 93 94 97 90 77 69 72 67 55 50 49 51
28 26 24 22 21 24 26 29 34 39 44 47 48 50 53 52 44 25 25 34 49 60 71 75 84 98 97 97 95 95 97 93 93 90 84 78 77 74 64 68 68 62 59
29 27 24 23 24 24 27 31 36 43 48 48 49 52 55 52 40 24 27 39 53 63 72 77 86 91 95 93 94 96 97 96 93 88 81 82 78 77 70 72 70 64 67
29 29 28 23 23 27 28 32 37 47 52 50 50 54 57 51 31 24 32 45 56 76 77 73 90 93 94 91 94 98 96 94 91 91 82 84 87 79 80 79 76 76 77
29 29 29 28 27 29 31 34 41 51 56 54 54 56 58 45 27 27 39 47 67 79 73 70 73 76 82 93 92 87 91 84 86 93 89 88 85 85 82 85 84 86 86
29 30 32 33 32 36 36 38 46 53 58 61 58 59 55 34 25 33 40 47 72 78 76 77 80 85 84 87 92 91 87 84 90 93 94 95 92 87 88 87 88 89 88
33 33 37 35 37 41 42 42 48 56 62 64 64 63 51 28 28 37 42 47 59 81 83 84 84 87 91 94 94 92 88 91 94 94 96 96 95 92 89 89 91 90 89
41 40 47 45 43 47 47 50 55 64 64 64 65 62 43 26 33 38 42 48 53 56 66 77 88 91 94 96 97 97 96 90 95 96 95 98 95 94 90 85 92 95 93
51 51 59 60 56 58 57 60 68 68 65 65 65 57 36 29 36 40 43 47 50 53 54 66 80 88 92 94 97 98 98 96 96 96 94 95 97 95 91 91 93 94 93
58 64 71 79 80 77 71 71 71 70 68 66 59 53 34 32 39 43 46 49 50 55 55 57 64 73 79 77 84 90 94 93 95 93 95 96 96 96 94 94 94 92 93
67 81 86 87 87 87 82 78 76 74 69 67 60 50 35 34 39 44 48 51 53 55 58 60 58 59 61 60 72 81 85 81 81 85 86 88 91 91 89 90 91 93 94
70 83 92 94 93 91 86 83 81 78 74 72 64 55 40 37 38 43 47 50 52 54 55 57 58 58 60 61 63 68 69 72 77 79 83 84 84 83 86 89 92 94 97
85 91 98 98 99 92 93 89 86 79 80 77 74 70 52 43 41 42 46 49 51 55 55 55 56 57 59 60 64 67 73 75 77 79 80 82 84 85 88 90 90 91 93
92 96 96 99 99 99 93 89 88 88 85 88 86 83 78 66 55 48 45 46 49 51 55 57 57 58 60 62 60 63 64 70 73 75 80 84 85 88 88 90 90 90 91
88 96 95 97 99 99 96 95 96 96 96 94 91 90 86 81 76 72 66 63 58 53 52 52 55 60 63 65 65 66 65 66 66 67 69 71 76 78 83 84 85 85 86
95 91 97 97 98 99 97 98 99 98 97 94 91 96 95 89 83 81 80 81 81 77 74 68 62 58 60 67 70 71 68 67 69 72 74 75 76 74 79 82 82 82 80
96 96 97 98 98 98 98 99 99 96 93 94 95 95 86 84 86 86 86 84 85 86 88 83 79 78 76 75 75 78 79 80 79 76 78 81 85 86 85 84 83 82 81
92 94 95 95 96 96 98 96 91 92 95 98 95 89 84 82 80 81 78 76 78 80 80 80 83 85 86 88 91 92 93 90 83 87 91 91 90 91 91 91 89 92 91
87 89 95 94 96 94 93 90 93 87 86 84 83 83 83 83 78 73 71 70 71 72 75 75 74 75 82 88 91 94 96 98 99 99 97 98 98 98 99 99 99 98 99
92 90 96 95 95 92 91 90 88 87 84 80 77 74 71 68 69 68 67 68 69 71 67 69 71 71 72 76 81 85 86 87 91 95 92 95 96 95 98 98 98 98 97
98 98 98 98 96 90 85 81 77 73 67 65 65 64 66 65 62 63 65 68 70 70 69 69 71 72 74 74 78 79 82 83 91 91 86 94 98 98 98 97 96 95 97
99 98 98 98 97 96 93 87 80 74 73 66 60 57 59 63 63 63 65 66 67 71 73 75 76 77 78 80 76 79 97 85 83 88 93 90 85 87 92 96 91 91 92
92 98 98 97 94 92 85 82 81 81 77 70 66 64 63 58 57 58 64 67 69 71 72 75 78 81 81 81 83 83 81 80 79 79 79 79 80 81 83 86 88 90 89

GFSMW_prec_cthk_111.txt.gz
RH
39 37 39 38 37 38 38 37 35 35 38 37 39 43 41 40 41 47 50 51 47 45 35 30 28 29 38 48 65 78 95 91 96 99 99 97 95 93 74 77 61 52 52
37 40 38 35 39 40 41 40 38 36 36 37 38 42 42 41 42 45 50 53 51 49 40 30 28 29 43 56 69 79 99 95 98 99 96 97 98 93 78 79 66 55 52
30 32 31 38 41 39 36 37 36 36 36 38 40 41 42 43 43 45 47 51 53 50 47 30 28 32 48 56 69 84 95 89 98 98 96 97 97 95 90 74 77 64 58
27 30 39 38 39 32 31 30 31 32 34 38 40 39 41 42 43 47 49 53 56 53 46 30 29 37 49 58 67 81 87 93 95 97 95 95 94 95 95 92 83 74 63
40 39 41 37 37 35 35 30 26 27 30 34 39 39 42 43 47 47 50 55 58 53 47 30 30 40 49 59 67 84 94 92 97 97 95 96 96 94 89 92 84 76 71
42 36 35 36 34 38 33 31 31 31 29 32 36 38 43 49 48 52 52 55 61 58 43 30 32 45 56 63 72 83 93 95 96 98 96 96 95 93 85 88 84 76 71
37 37 37 36 36 34 33 30 29 31 32 32 30 35 43 50 51 53 56 56 62 57 34 29 35 50 67 75 79 86 94 98 95 98 98 97 97 95 90 91 82 79 77
40 40 43 41 38 38 35 31 29 32 35 34 30 33 42 50 55 55 55 58 63 55 27 31 44 63 73 78 84 88 96 91 94 96 96 95 98 95 93 93 79 80 80
43 47 44 42 38 34 32 31 32 31 36 34 33 33 42 51 55 55 57 60 64 45 28 36 49 68 69 69 82 91 91 90 95 93 95 95 96 94 96 91 84 80 85
48 44 45 41 36 35 30 31 32 33 32 32 32 33 41 50 55 56 58 62 60 36 33 38 52 71 69 66 78 86 85 94 92 90 96 98 98 97 95 93 92 87 87
46 49 45 42 39 38 34 31 33 37 38 33 33 35 44 50 57 58 61 63 50 38 36 39 49 60 75 80 78 83 82 87 89 90 98 99 98 97 97 95 96 92 87
50 49 46 47 45 41 39 39 41 44 42 38 40 37 46 52 61 62 63 59 48 38 38 44 49 52 62 81 90 89 91 93 90 88 95 99 99 98 97 95 98 91 92
55 52 48 47 47 45 45 44 49 52 50 45 45 45 50 58 64 67 65 51 52 38 38 43 45 49 61 72 86 91 94 97 99 98 98 97 98 98 97 97 97 94 92
53 54 55 53 50 48 49 46 56 62 56 54 52 51 58 64 68 73 63 53 52 39 39 42 46 50 59 66 73 79 85 94 97 98 99 99 99 98 96 96 96 96 94
54 57 55 51 49 54 55 54 66 67 70 65 60 61 68 71 75 74 58 59 48 42 44 44 49 48 49 53 57 60 68 76 91 96 98 99 98 98 98 96 97 98 98
58 59 56 53 56 58 61 62 74 77 83 74 68 69 76 79 82 72 62 60 46 45 49 48 50 50 50 50 53 57 63 66 67 73 78 83 85 86 86 86 88 90 91
60 58 58 58 61 63 71 78 84 92 89 86 81 78 78 81 81 70 65 56 48 49 52 52 53 52 50 50 52 54 59 63 66 68 71 74 73 74 77 77 78 81 81
62 62 64 65 71 75 77 88 92 95 92 92 90 86 86 90 83 70 61 54 52 52 52 53 56 56 53 54 56 57 58 59 62 63 64 66 68 70 72 73 72 73 76
63 67 68 72 83 87 91 84 96 96 95 96 92 92 93 89 84 68 58 56 54 55 55 55 56 57 57 57 59 61 61 61 62 65 66 66 67 70 71 74 74 76 78
71 75 76 77 88 95 98 97 98 98 98 98 98 97 94 94 88 67 60 58 59 57 55 56 55 55 59 61 66 68 68 70 70 75 76 79 79 80 83 84 85 86 87
80 80 82 85 95 97 98 97 98 98 98 99 99 98 99 98 97 93 82 79 79 81 83 85 83 83 82 82 84 83 86 85 84 83 83 87 90 91 90 92 95 96 97
88 91 91 91 95 96 97 98 98 98 97 98 98 99 97 98 99 98 98 95 90 86 95 93 93 90 91 92 92 90 87 86 86 89 97 98 98 95 96 98 98 97 98
88 97 96 96 96 97 97 99 97 98 99 99 98 98 99 98 99 98 99 97 94 94 93 93 92 94 92 88 86 87 86 83 81 82 82 87 96 92 95 98 99 99 98
92 98 98 98 98 97 98 98 96 94 97 96 96 97 97 97 99 98 96 97 97 96 97 94 92 94 93 90 90 88 83 83 82 84 79 93 77 80 80 84 87 93 95
85 94 98 98 98 98 98 97 96 95 87 85 85 83 84 84 87 84 83 84 84 87 88 88 90 89 88 86 85 83 84 86 83 84 82 84 83 94 91 84 84 86 83
78 80 90 93 97 98 97 97 95 91 90 89 88 80 74 71 73 76 79 82 84 83 82 80 80 81 84 85 85 87 84 83 83 83 82 83 83 82 81 79 79 78 79

GFSMW_prec_cthk_114.txt.gz
RH
39 36 35 35 38 39 36 37 42 45 44 42 41 40 41 40 42 42 42 40 40 47 48 49 46 35 26 25 32 42 52 61 71 92 94 97 99 98 95 87 83 63 49
41 40 39 37 37 39 37 37 40 41 42 43 40 41 41 44 43 42 42 40 43 45 50 51 49 43 27 25 30 43 52 65 77 95 96 97 99 98 95 92 88 64 51
45 43 44 42 41 40 39 40 40 40 43 42 42 44 43 44 43 43 44 48 48 46 51 54 53 47 31 27 31 43 55 64 84 95 96 98 96 96 95 94 90 78 65
45 45 43 41 42 41 39 41 41 40 40 41 40 40 37 37 37 40 42 45 51 47 50 56 55 49 34 28 33 44 54 64 84 95 97 97 95 95 98 95 93 85 75
39 36 40 41 45 45 43 45 36 33 32 35 36 36 34 34 37 39 41 47 49 49 50 57 58 52 33 28 34 46 54 64 81 93 91 97 97 95 95 95 94 94 90
40 41 47 51 51 46 47 42 34 32 33 31 35 35 31 31 37 40 42 45 50 50 49 58 62 55 32 30 39 51 62 69 80 95 95 96 93 96 95 94 93 97 95
56 58 58 56 53 51 52 47 38 32 32 33 31 35 35 33 38 44 47 47 49 49 48 59 62 53 31 34 49 65 75 77 83 94 96 95 98 96 96 96 93 96 96
65 62 60 58 59 53 44 38 33 30 29 30 35 32 34 35 39 45 54 48 50 48 49 60 62 45 31 40 60 69 75 82 88 91 96 96 99 97 97 97 94 94 95
64 66 63 61 54 43 35 31 29 28 27 27 30 39 31 34 40 48 55 56 53 51 50 61 60 38 37 44 62 66 77 83 91 94 96 97 98 97 98 96 92 93 93
67 66 65 61 46 39 34 31 29 28 28 27 28 34 31 34 39 46 57 58 55 53 53 60 52 40 39 46 65 68 73 87 93 92 92 92 97 98 98 96 95 96 89
65 59 53 46 44 41 36 33 31 28 28 33 32 33 30 32 39 48 57 58 55 56 56 55 54 42 38 46 61 73 74 81 85 90 92 89 97 97 97 96 96 95 93
79 63 57 52 47 42 36 33 30 30 32 38 43 38 36 34 42 51 59 59 57 60 57 54 57 41 40 49 57 72 84 86 82 86 89 91 95 98 98 97 97 96 95
50 49 47 42 43 46 40 38 36 33 37 46 49 47 42 39 42 54 62 60 61 62 56 56 56 40 40 46 55 69 84 94 95 95 94 92 93 94 97 98 98 97 95
52 50 46 44 47 48 44 44 41 42 44 48 52 50 47 44 44 57 58 63 66 65 57 59 55 39 39 47 59 67 77 87 92 94 98 98 97 96 97 98 99 97 96
49 48 46 44 49 50 48 48 46 46 50 55 56 57 54 51 51 57 60 71 70 63 57 61 55 40 40 48 56 62 66 68 78 92 99 98 99 99 99 98 98 98 97
53 53 50 52 54 53 51 50 50 48 57 65 65 66 66 61 62 64 69 77 75 65 62 66 54 43 43 45 51 57 61 64 66 75 86 95 99 99 99 98 98 97 95
59 58 59 59 59 58 57 57 54 54 62 73 76 76 77 74 74 72 78 84 75 70 70 70 56 49 48 50 48 52 55 59 63 67 71 75 81 85 89 90 89 91 90
59 59 59 60 63 62 62 62 61 60 68 88 86 91 88 84 79 81 85 85 78 77 75 73 57 53 52 52 51 52 55 59 60 61 64 69 72 74 76 79 80 79 80
63 65 66 70 69 68 66 67 67 69 76 91 94 94 95 91 88 89 90 84 80 78 82 73 58 54 54 55 56 57 59 59 61 62 63 66 69 69 71 72 73 74 76
74 76 75 73 72 73 73 78 79 81 88 90 96 96 96 96 93 92 87 85 78 82 75 66 59 57 59 60 61 62 63 65 65 65 68 71 73 74 77 79 81 85 86
81 82 82 80 77 77 80 89 91 89 96 99 99 96 96 98 99 93 91 82 82 78 74 65 60 59 58 60 61 63 67 71 75 74 76 77 80 85 87 89 90 90 92
80 85 86 86 86 86 90 94 95 96 98 98 98 99 97 97 96 96 96 92 80 75 71 67 66 69 76 80 81 82 88 88 89 90 91 91 95 96 98 99 99 99 97
79 87 89 94 96 95 96 95 97 97 97 98 98 99 98 98 99 99 99 95 87 83 83 82 87 89 91 92 93 97 95 93 92 90 88 81 80 84 93 98 99 99 98
77 83 95 98 97 97 96 97 97 97 97 97 98 98 98 99 99 98 98 98 98 99 95 93 94 91 90 89 95 99 97 94 88 97 86 99 96 99 87 88 94 89 87
79 79 86 94 96 96 97 97 97 98 98 98 97 96 98 98 97 98 98 98 98 99 98 97 98 96 99 99 98 98 96 95 95 91 89 89 86 89 88 84 85 89 86
80 78 78 81 87 86 87 93 97 98 97 96 97 96 94 90 91 95 97 97 97 97 97 97 98 97 98 98 98 97 94 95 93 93 92 92 89 88 86 84 83 83 82